User: anonymous
Location: Caltech
(34.1382°N, 118.1253°W)
Time: 07:28:45
(UTC-07:00)
Language:

ASTRO E2 - Orbit

View from above orbital plane
View from above orbital plane
View from above satellite
View from above satellite

Ground track
Ground track

The orbit data is extracted from the following two-line orbital elements,

1 28773U 05025A   14274.13809572  .00007490  00000-0  44989-3 0  3803
2 28773 031.3829 216.5204 0005354 167.9942 307.1882 15.09591489507215
Epoch (UTC): 01 October 2014 03:18:51
Eccentricity: 0.0005354
inclination: 31.3829°
perigee height: 534 km
apogee height: 541 km
right ascension of ascending node: 216.5204°
argument of perigee: 167.9942°
revolutions per day: 15.09591489
mean anomaly at epoch: 307.1882°
orbit number at epoch: 50721

The dashed part of the orbit path shows where the satellite is in the earth's shadow,  

DLR